Home > Weather > Seattle > Past weeks

Flag for U.S.A. Weather for the Past 2 Weeks in Seattle, Washington, U.S.A.

Now
58 °F

Scattered clouds.


Feels Like: 58 °F
Forecast: 43 / 60 °F
Wind: No wind

Location: Seattle Boeing Field

Current Time: Feb 9, 2016 at 3:08:36 PM

Latest Report: Feb 9, 2016 at 1:53 PM


Visibility: 10 mi

Pressure: 30.12 "Hg

Humidity: 65%

Dew point: 46 °F

Location of SeattleLocation

Historic Weather in Seattle — Graph

°F

Seattle Temperature Yesterday

Maximum temperature yesterday: 57 °F (at 3:53 PM)
Minimum temperature yesterday: 39 °F (at 3:53 AM)
Average temperature yesterday: 47 °F

High & Low Weather Summary for the Past Weeks

 TemperatureHumidityPressure
High58 °F (Feb 9, 1:53 PM)100% (Jan 26, 8:53 AM)30.57 "Hg (Jan 26, 8:53 AM)
Low35 °F (Feb 2, 7:53 AM)56% (Feb 2, 3:53 PM)29.60 "Hg (Jan 29, 8:53 AM)
Average46 °F84%30.17 "Hg
* Reported Jan 25 1:53 PM — Feb 9 1:53 PM, Seattle, Weather by CustomWeather, © 2016

Note: Actual official high and low records may vary slightly from our data, if they occured in-between our weather recording intervals... More about our weather records

Advertising

Seattle Weather History for the Previous 24 Hours

 ConditionsComfort  
Time TempWeatherWind HumidityBarometerVisibility
1:53 PM
Tue, Feb 9
58 °FScattered clouds.No wind65%30.12 "Hg10 mi
12:53 PM53 °FScattered clouds.3 mph77%30.15 "Hg9 mi
11:53 AM47 °FFog.3 mph93%30.19 "Hg6 mi
10:57 AM44 °FFog.3 mph96%30.20 "Hg1 mi
9:53 AM44 °FFog.5 mph96%30.22 "Hg0 mi
8:53 AM42 °FFog.6 mph96%30.21 "Hg0 mi
7:53 AM40 °FFog.5 mph97%30.20 "Hg0 mi
6:53 AM39 °FFog.8 mph96%30.19 "Hg0 mi
5:53 AM41 °FPassing clouds.5 mph93%30.20 "Hg9 mi
4:53 AM39 °FLight rain. Clear.No wind96%30.21 "Hg9 mi
3:53 AM41 °FClear.No wind93%30.21 "Hg9 mi
2:53 AM41 °FClear.No wind93%30.23 "Hg7 mi
1:53 AM42 °FClear.No wind92%30.24 "Hg10 mi
12:53 AM44 °FClear.No wind89%30.26 "Hg10 mi
11:53 PM
Mon, Feb 8
43 °FClear.No wind89%30.27 "Hg10 mi
10:53 PM45 °FClear.No wind90%30.29 "Hg10 mi
9:53 PM47 °FClear.No wind86%30.29 "Hg10 mi
8:53 PM48 °FClear.No wind83%30.31 "Hg10 mi
7:53 PM49 °FClear.3 mph84%30.32 "Hg10 mi
6:53 PM50 °FClear.3 mph80%30.33 "Hg10 mi
5:53 PM52 °FPassing clouds.5 mph75%30.34 "Hg10 mi
4:53 PM55 °FSunny.6 mph67%30.34 "Hg10 mi
3:53 PM57 °FScattered clouds.7 mph60%30.35 "Hg10 mi
Weather by CustomWeather, © 2016

See weather overviewHow to use our weather pages